Sidney-Richland, MT

6:10 PM MDT on August 18, 2017 (GMT -0600)
Sidney-Richland Municipal

Weather History for KSDY - September, 2013

Change the Weather History Date:

Saturday, September 28, 2013

  Actual Average Record
Temperature  
Mean Temperature 50 °F -  
Max Temperature 64 °F 68 °F 87 °F (2001)
Min Temperature 35 °F 39 °F 25 °F (1951)
Degree Days  
Heating Degree Days 16    
Moisture  
Dew Point 35 °F    
Average Humidity 65    
Maximum Humidity 93    
Minimum Humidity 32    
Precipitation  
Precipitation 0.00 in - - ()
Sea Level Pressure  
Sea Level Pressure 29.79 in    
Wind  
Wind Speed 8 mph (SW)    
Max Wind Speed 22 mph    
Max Gust Speed 26 mph    
Visibility 10 miles    
Events      
Averages and records for this station are not official NWS values.
T = Trace of Precipitation, MM = Missing Value Source: NWS Daily Summary

Daily Weather History Graph

Daily Weather History Graph

Search for Another Location

Airport or City:

Trip Planner

Search our weather history database for the weather conditions in past years. The results will help you decide how hot, cold, wet, or windy it might be!

Date:

Astronomy

Sep. 28, 2013 Rise Set
Actual Time 6:52 AM MDT 6:41 PM MDT
Civil Twilight 6:21 AM MDT 7:12 PM MDT
Nautical Twilight 5:45 AM MDT 7:48 PM MDT
Astronomical Twilight 5:08 AM MDT 8:24 PM MDT
Moon 12:19 AM MDT (9/28) 3:22 PM MDT (9/28)
Length of Visible Light 12h 50m
Length of Day
11h 49m
Waning Crescent, 35% of the Moon is Illuminated
Sep 28
Waning Crescent
Oct 4
New
Oct 11
First Quarter
Oct 18
Full
Oct 26
Last Quarter

Hourly Weather History & Observations

Time (MDT) Temp. Windchill Dew Point Humidity Pressure Visibility Wind Dir Wind Speed Gust Speed Precip Events Conditions
12:15 AM 39.2 °F 33.6 °F 33.8 °F 81% 29.84 in 10.0 mi South 8.1 mph - N/A   Clear
12:35 AM 37.4 °F 32.1 °F 32.0 °F 81% 29.83 in 10.0 mi SSW 6.9 mph - N/A   Clear
12:55 AM 37.4 °F 34.9 °F 30.2 °F 75% 29.84 in 10.0 mi SW 3.5 mph - N/A   Clear
1:15 AM 35.6 °F - 30.2 °F 81% 29.84 in 10.0 mi Calm Calm - N/A   Clear
1:35 AM 35.6 °F 32.8 °F 30.2 °F 81% 29.83 in 10.0 mi SW 3.5 mph - N/A   Clear
1:55 AM 35.6 °F 32.8 °F 32.0 °F 87% 29.84 in 10.0 mi South 3.5 mph - N/A   Clear
2:15 AM 35.6 °F - 30.2 °F 81% 29.83 in 10.0 mi Calm Calm - N/A   Clear
2:35 AM 35.6 °F 31.7 °F 30.2 °F 81% 29.83 in 10.0 mi SSW 4.6 mph - N/A   Clear
2:55 AM 35.6 °F 29.9 °F 33.8 °F 93% 29.82 in 10.0 mi SSW 6.9 mph - N/A   Clear
3:15 AM 37.4 °F 32.1 °F 33.8 °F 87% 29.82 in 10.0 mi SSW 6.9 mph - N/A   Clear
3:35 AM 35.6 °F 29.2 °F 32.0 °F 87% 29.82 in 10.0 mi South 8.1 mph - N/A   Partly Cloudy
3:55 AM 37.4 °F 30.3 °F 33.8 °F 87% 29.82 in 10.0 mi SSW 10.4 mph - N/A   Partly Cloudy
4:16 AM 37.4 °F 30.3 °F 33.8 °F 87% 29.82 in 10.0 mi South 10.4 mph - N/A   Mostly Cloudy
4:35 AM 37.4 °F 31.4 °F 35.6 °F 93% 29.83 in 10.0 mi South 8.1 mph - N/A   Overcast
4:55 AM 39.2 °F 33.0 °F 35.6 °F 87% 29.83 in 10.0 mi South 9.2 mph - N/A   Overcast
5:15 AM 39.2 °F 33.6 °F 35.6 °F 87% 29.82 in 10.0 mi South 8.1 mph - N/A   Overcast
5:35 AM 39.2 °F 34.2 °F 35.6 °F 87% 29.82 in 10.0 mi South 6.9 mph - N/A   Overcast
5:55 AM 39.2 °F 34.2 °F 35.6 °F 87% 29.81 in 10.0 mi South 6.9 mph - N/A   Overcast
6:15 AM 37.4 °F 32.8 °F 35.6 °F 93% 29.81 in 10.0 mi South 5.8 mph - N/A   Scattered Clouds
6:35 AM 37.4 °F 34.9 °F 33.8 °F 87% 29.81 in 10.0 mi SSW 3.5 mph - N/A   Partly Cloudy
6:55 AM 35.6 °F 30.7 °F 33.8 °F 93% 29.80 in 10.0 mi SSW 5.8 mph - N/A   Clear
7:15 AM 35.6 °F 29.2 °F 33.8 °F 93% 29.81 in 10.0 mi SSW 8.1 mph - N/A   Clear
7:35 AM 37.4 °F 31.4 °F 35.6 °F 93% 29.81 in 10.0 mi SSW 8.1 mph - N/A   Mostly Cloudy
7:55 AM 39.2 °F 33.6 °F 35.6 °F 87% 29.81 in 10.0 mi SSW 8.1 mph - N/A   Overcast
8:15 AM 39.2 °F 33.6 °F 35.6 °F 87% 29.81 in 10.0 mi South 8.1 mph - N/A   Overcast
8:35 AM 41.0 °F 35.8 °F 37.4 °F 87% 29.81 in 10.0 mi SSW 8.1 mph - N/A   Overcast
8:55 AM 42.8 °F 37.5 °F 37.4 °F 81% 29.81 in 10.0 mi SSW 9.2 mph - N/A   Overcast
9:15 AM 42.8 °F 37.5 °F 37.4 °F 81% 29.81 in 10.0 mi South 9.2 mph - N/A   Overcast
9:35 AM 44.6 °F 40.7 °F 37.4 °F 76% 29.81 in 10.0 mi SSW 6.9 mph - N/A   Overcast
9:55 AM 46.4 °F 43.5 °F 39.2 °F 76% 29.81 in 10.0 mi South 5.8 mph - N/A   Overcast
10:15 AM 48.2 °F - 41.0 °F 76% 29.81 in 10.0 mi South 8.1 mph - N/A   Overcast
10:35 AM 48.2 °F - 41.0 °F 76% 29.81 in 10.0 mi SSW 5.8 mph - N/A   Overcast
10:55 AM 53.6 °F - 39.2 °F 58% 29.80 in 10.0 mi West 11.5 mph 16.1 mph N/A   Overcast
11:15 AM 55.4 °F - 37.4 °F 51% 29.79 in 10.0 mi West 10.4 mph - N/A   Overcast
11:35 AM 59.0 °F - 37.4 °F 45% 29.79 in 10.0 mi West 17.3 mph - N/A   Scattered Clouds
11:55 AM 60.8 °F - 37.4 °F 42% 29.79 in 10.0 mi West 17.3 mph 21.9 mph N/A   Clear
12:15 PM 60.8 °F - 35.6 °F 39% 29.78 in 10.0 mi WSW 16.1 mph 24.2 mph N/A   Clear
12:35 PM 60.8 °F - 35.6 °F 39% 29.78 in 10.0 mi WSW 17.3 mph 23.0 mph N/A   Partly Cloudy
12:55 PM 62.6 °F - 35.6 °F 37% 29.78 in 10.0 mi West 15.0 mph 26.5 mph N/A   Scattered Clouds
1:15 PM 60.8 °F - 33.8 °F 36% 29.78 in 10.0 mi West 16.1 mph 19.6 mph N/A   Mostly Cloudy
1:35 PM 62.6 °F - 35.6 °F 37% 29.78 in 10.0 mi West 18.4 mph 21.9 mph N/A   Overcast
1:55 PM 62.6 °F - 33.8 °F 34% 29.77 in 10.0 mi West 17.3 mph 23.0 mph N/A   Overcast
2:15 PM 62.6 °F - 33.8 °F 34% 29.77 in 10.0 mi West 17.3 mph 23.0 mph N/A   Mostly Cloudy
2:35 PM 64.4 °F - 33.8 °F 32% 29.77 in 10.0 mi West 16.1 mph 26.5 mph N/A   Scattered Clouds
2:55 PM 64.4 °F - 33.8 °F 32% 29.77 in 10.0 mi West 21.9 mph 26.5 mph N/A   Partly Cloudy
3:15 PM 64.4 °F - 33.8 °F 32% 29.77 in 10.0 mi West 15.0 mph 25.3 mph N/A   Scattered Clouds
3:35 PM 64.4 °F - 35.6 °F 34% 29.77 in 10.0 mi WNW 17.3 mph 20.7 mph N/A   Scattered Clouds
3:55 PM 64.4 °F - 33.8 °F 32% 29.77 in 10.0 mi West 16.1 mph 20.7 mph N/A   Partly Cloudy
4:15 PM 64.4 °F - 35.6 °F 34% 29.77 in 10.0 mi West 15.0 mph 21.9 mph N/A   Clear
4:55 PM 64.4 °F - 33.8 °F 32% 29.77 in 10.0 mi WNW 15.0 mph 20.7 mph N/A   Clear
5:15 PM 64.4 °F - 33.8 °F 32% 29.77 in 10.0 mi West 13.8 mph - N/A   Clear
5:35 PM 64.4 °F - 33.8 °F 32% 29.77 in 10.0 mi West 12.7 mph - N/A   Clear
5:56 PM 62.6 °F - 33.8 °F 34% 29.77 in 10.0 mi West 8.1 mph - N/A   Clear
6:15 PM 60.8 °F - 33.8 °F 36% 29.77 in 10.0 mi West 5.8 mph - N/A   Clear
6:35 PM 57.2 °F - 33.8 °F 41% 29.77 in 10.0 mi West 4.6 mph - N/A   Clear
6:55 PM 50.0 °F - 33.8 °F 54% 29.77 in 10.0 mi West 4.6 mph - N/A   Clear
7:15 PM 48.2 °F - 33.8 °F 58% 29.77 in 10.0 mi WSW 6.9 mph - N/A   Clear
7:55 PM 48.2 °F - 35.6 °F 62% 29.77 in 10.0 mi Calm Calm - N/A   Clear
8:15 PM 48.2 °F - 33.8 °F 58% 29.77 in 10.0 mi Calm Calm - N/A   Clear
8:35 PM 46.4 °F 45.2 °F 35.6 °F 66% 29.77 in 10.0 mi South 3.5 mph - N/A   Clear
8:55 PM 44.6 °F 42.2 °F 35.6 °F 71% 29.77 in 10.0 mi SW 4.6 mph - N/A   Clear
9:15 PM 46.4 °F 43.5 °F 35.6 °F 66% 29.77 in 10.0 mi SW 5.8 mph - N/A   Clear
9:35 PM 44.6 °F 40.7 °F 33.8 °F 66% 29.77 in 10.0 mi SW 6.9 mph - N/A   Clear
9:55 PM 44.6 °F 39.7 °F 35.6 °F 71% 29.77 in 10.0 mi SW 9.2 mph - N/A   Clear
10:15 PM 44.6 °F 40.7 °F 33.8 °F 66% 29.76 in 10.0 mi SSW 6.9 mph - N/A   Clear
10:55 PM 41.0 °F 36.4 °F 33.8 °F 76% 29.75 in 10.0 mi SSW 6.9 mph - N/A   Clear
11:15 PM 39.2 °F 34.2 °F 33.8 °F 81% 29.74 in 10.0 mi SSW 6.9 mph - N/A   Clear
11:35 PM 44.6 °F 40.2 °F 35.6 °F 71% 29.74 in 10.0 mi SW 8.1 mph - N/A   Clear
11:55 PM 44.6 °F 40.2 °F 35.6 °F 71% 29.74 in 10.0 mi SSW 8.1 mph - N/A   Clear